Weather in Adak Island

United States     51°52′11″N   176°38′27″W
temp.,
°C
wind,
m/s
gust,
m/s
humid.,
%
clouds,
%
prec.,
mm/h
press.,
hPa
HPBL,
m
25 may, wed
wed2501:00+7e368122 0.0 1015356
04:00+6ese358666 0.0 1015312
07:00+6e239433 0.0 101479
10:00+7e368457 0.0 1014404
13:00+7e699095 0.0 1014462
16:00+7e588587 0.0 1013508
19:00+7e578189 0.0 1013547
22:00+7e588496 0.1 1012605
26 may, thu
thu2601:00+6e6984100 0.1 1013700
04:00+6e7986100 0.1 1013629
07:00+6e6987100 0.1 1013633
10:00+6e81080100 0.1 1013787
13:00+8e81068100 0.0 1014987
16:00+9e81059100 0.0 10141106
19:00+9e9116595 0.1 1014854
22:00+8e8107399 0.1 1014599
27 may, fri
fri2701:00+7e71082100 0.2 1016465
04:00+7e61082100 0.3 1016490
07:00+7ene51081100 0.1 1016526
10:00+8ene7107396 0.3 1017686
13:00+9ene896498 0.1 1018888
16:00+10ene786092 0.3 10181024
19:00+10ene676279 0.3 1018916
22:00+9ne346534 0.4 1019755
28 may, sat
sat2801:00+8nne33755 0.1 1019104
04:00+6ne22865 0.1 101970
07:00+6n118945 0.0 101944
10:00+6n118262 0.0 1019254
13:00+8s117074 0.0 1018721
16:00+8ssw217696 0.2 1018745
19:00+7sw117994 0.4 1018617
22:00+8w117398 0.6 1017603
29 may, sun
sun2901:00+7nw1178100 0.1 1017315
04:00+6nw117977 0.1 1016149
07:00+7nw117274 0.0 1015289
10:00+7nw117294 0.0 1015259
13:00+7wnw1170100 0.0 1014681
16:00+8w227074 0.1 1014668
19:00+8w227168 0.1 1013659
22:00+7wsw227280 0.2 1013633